Torna al catalogo

NIMBUS 2 DEB

AttivoSSO
NORAD 59971·DEBRIS·🇺🇸 United States

Lanciato May 15, 1966 da Vandenberg Space Force Base

Loading…

Prossimi Passaggi (prossime 24 ore)

TLE

AggiornatoSource: Space-Track

Epoca: Sep 13, 2026, 12:51 UTC

1 59971U 66040CA  26256.53583079  .00001100  00000-0  20573-2 0  9999
2 59971 100.4256 107.9609 0062374  41.1507 319.4299 13.40807584271167

Traccia NIMBUS 2 DEB in tempo reale con AllMySat

Download on the App Store